Regional Weather Roundup
Issued by NWS Kansas City/Pleasant Hill, MO

Home | Current Version | Previous Version | Graphics & Text | Print | Product List | Glossary Off
Versions: 1 2 3 4 5 6 7 8 9 10 11 12 13 14 15 16 17 18 19 20 21 22 23 24 25 26 27

000
ASUS43 KEAX 270410
RWREAX

WEATHER ROUNDUP FOR EASTERN KANSAS AND NORTHWEST MISSOURI
NATIONAL WEATHER SERVICE KANSAS CITY/PLEASANT HILL MO
1100 PM CDT TUE JUL 26 2016

KSZ040-057-103>105-MOZ028-029-037-043-270500-
...KANSAS CITY METROPOLITAN AREA...

CITY           SKY/WX    TMP DP  RH WIND       PRES   REMARKS
K.C. INTL      CLEAR     77  67  71 SE6       30.00F
K.C. DOWNTOWN  CLEAR     79  67  66 E5        29.98F
LEES SUMMIT    PTCLDY    77  69  76 NE6       30.00F
OLATHE - IXD   CLEAR     74  69  85 NE3       30.01S
OLATHE - OJC   CLEAR     76  67  73 NE5       30.00F
LAWRENCE       CLEAR     73  68  84 E3        29.99F

$$

MOZ001>008-011>017-020>025-030>033-038>040-044>046-053-054-270500-
...NORTHERN AND CENTRAL MISSOURI...

CITY           SKY/WX    TMP DP  RH WIND       PRES   REMARKS
ST. JOSEPH     CLEAR     76  66  71 SE5       30.01R
MOSBY          CLEAR     70  68  94 CALM      29.99F
WHITEMAN AFB   PTCLDY    75  75  99 NE3       29.98S
CLINTON        PTCLDY    73  72  94 CALM      29.99S
SEDALIA        CLOUDY    76  71  85 NE3       30.00S
WARSAW         NOT AVBL
CHILLICOTHE      N/A     72  69  90 CALM      30.01F
KIRKSVILLE     CLEAR     68  65  90 CALM      30.02F

$$

MOZ041-047>049-056>058-063>065-088>090-097-270500-
...EASTERN AND SOUTHERN MISSOURI...

CITY           SKY/WX    TMP DP  RH WIND       PRES   REMARKS
ST. LOUIS INTL MOCLDY    82  72  71 S6        30.02R
SPIRIT OF STL  CLOUDY    78  75  90 CALM      29.99R
COLUMBIA       CLOUDY    76  74  93 SE3       30.01R
JEFFERSON CITY PTCLDY    75  72  90 CALM      29.99R
ROLLA          CLOUDY    73  72  96 CALM      30.01R
OSAGE BEACH    CLOUDY    75  73  93 CALM      30.01S
SPRINGFIELD    CLOUDY    75  71  87 CALM      30.01S
BRANSON        CLOUDY    73  73 100 CALM      30.03S FOG
JOPLIN         CLOUDY    74  72  93 CALM      29.99R
WEST PLAINS    PTCLDY    74  71  91 CALM      30.04S

$$

IAZ060-094-KSZ022-034>040-054-083-096-NEZ052-066-093-270500-
...KANSAS...SOUTHEAST NEBRASKA AND IOWA...

CITY           SKY/WX    TMP DP  RH WIND       PRES   REMARKS
TOPEKA         CLEAR     74  69  85 CALM      29.99F
MANHATTAN      CLEAR     74  69  85 CALM      29.99S HAZE
EMPORIA        CLEAR     74  70  87 NE3       29.99S
CHANUTE        PTCLDY    75  73  93 SE5       29.98S
WICHITA        PTCLDY    81  72  74 E9        29.98S
OMAHA          PTCLDY    77  68  73 SE6       30.02R
LINCOLN        PTCLDY    77  64  64 SE8       30.03R
FALLS CITY     CLEAR     73  69  87 CALM      29.99S
LAMONI         CLEAR     71  66  84 CALM      30.03R
DES MOINES     CLEAR     78  65  63 S3        30.02S

$$





USA.gov is the U.S. government's official web portal to all federal, state and local government web resources and services.